STARLINK-5020, 55458

Orbit data source: Space-Track

STARLINK-5020, 55458 is a payload satellite owned by SpaceX/Seattle (US) in LEO that was launched on Thu, 02 Feb 2023 UTC via an FALCON 9 launch vehicle from the Air Force Eastern Test Range (AFETR). Payload-class satellites include a variety of spacecraft equipped with specific instruments for various scientific and technological missions. These include communications satellites like Starlink; space stations such as the ISS; scientific satellites like the Hubble; Earth observation satellites from companies like Planet Labs, Umbra, and HawkEye 360; GPS; miniature CubeSats for education and research; and military/defense satellites.

Loading next visibility...
Identifier
55458, 2023-015K
Orbit
LEO
Country
Flag of USUS
Related business
Manufacturer
SpaceX/Seattle
Mission
Operational Commercial Communications
Bus & Motor
STARLINK, Unknown motor
Mass
305 kg wet, ~290 kg dry
Launch date (UTC)
2023-02-02 (4 years ago)
Launch vehicle
FALCON 9
Launch site
Air Force Eastern Test Range (AFETR)
Object type
Payload
Rocket body
Debris
Shape & HBR
Box + 1 Pan, 10.1 m
Radar Cross Section
13.562 m², Large (>1 m²)

Expand to show TLE details & history
Last TLE update: 7 hours ago

TLE from 7 hours ago
0 STARLINK-5020
1 55458U 23015K   26258.52902165 -.00000228  00000-0  12317-5 0  9993
2 55458  43.0037 336.7678 0001079 274.3153  85.7575 15.27579210199755
Epoch: 2026-09-15T12:41Z
TLE epoch observation values (Epoch: 2026-09-15T12:41:47.470Z)
Latitude
-0.00005°
Longitude
151.82629°
Altitude
482.773 km
Speed
7.626 km/s
True Right ascension
22h 27m 04s
True Declination
0° 00' 00"
Sunlit
Object was in full shadow at epoch
Visualization orbit readout
Latitude
Unknown
Longitude
Unknown
Altitude
Unknown
Speed
Unknown
Apparent Right ascension
Unknown
Apparent Declination
Unknown
Sunlit
N/A
Visualization observer readout
Local Sidereal Time
12:15:18
Azimuth
Unknown
Elevation
Unknown
Doppler factor
Unknown
Orbital elements
Apogee altitude
485.737 km
Perigee altitude
484.255 km
Semi-major axis
6,863.133 km
Eccentricity
0.00011
Inclination
43.0037°
RAAN
336.7678°
Arg. of periapsis
274.3153°
True anomaly
85.76983°
Mean anomaly
85.7575°
Eccentric anomaly
85.76367°
Mean motion
3.81733 °/min
Orbital period
94.31 mins
BSTAR
0.0000012317
Loading maneuver chart data...
Computing Atmospheric mass density...
Loading historical data...
Loading historical data...
Loading historical data...
Loading historical data...
Loading historical data...
Loading historical data...
Loading historical data...

Documentation

Showing up to 5 results
|